• In Germany
  • List of Countries
  • For 7 days
  • Water Temperature
  • Satellite Maps
  • Weather Map
  • Weather Widgets
  • user-avatar
    Login

    Hourly Weather Andora

    Today, 26 July, Wednesday

    Time Temperature Precipitation Wind Pressure Humidity
    00:00 +7°C° 0 mm 2 mps 625 mmHg 85%
    01:00 +7°C° 0 mm 2 mps 624 mmHg 84%
    02:00 +6°C° 0 mm 2 mps 624 mmHg 83%
    03:00 +6°C° 0 mm 2 mps 624 mmHg 83%
    04:00 +7°C° 0 mm 2 mps 624 mmHg 78%
    05:00 +7°C° 0 mm 2 mps 624 mmHg 74%
    06:00 +8°C° 0 mm 2 mps 625 mmHg 70%
    07:00 +12°C° 0 mm 2 mps 626 mmHg 62%
    08:00 +14°C° 0 mm 2 mps 627 mmHg 54%
    09:00 +16°C° 0 mm 2 mps 628 mmHg 45%
    10:00 +17°C° 0 mm 2 mps 628 mmHg 42%
    11:00 +19°C° 0 mm 3 mps 628 mmHg 39%
    12:00 +20°C° 0 mm 3 mps 629 mmHg 36%
    13:00 +20°C° 0 mm 3 mps 629 mmHg 37%
    14:00 +21°C° 0 mm 3 mps 629 mmHg 37%
    15:00 +21°C° 0 mm 3 mps 628 mmHg 38%
    16:00 +20°C° 0 mm 3 mps 628 mmHg 44%
    17:00 +19°C° 0 mm 3 mps 628 mmHg 49%
    18:00 +18°C° 0 mm 3 mps 627 mmHg 55%
    19:00 +16°C° 0 mm 2 mps 627 mmHg 64%
    20:00 +14°C° 0 mm 2 mps 626 mmHg 74%
    21:00 +12°C° 0 mm 2 mps 626 mmHg 84%
    22:00 +10°C° 0 mm 2 mps 626 mmHg 84%
    23:00 +10°C° 0 mm 2 mps 626 mmHg 84%

    Tomorrow, 27 July, Thursday

    Time Temperature Precipitation Wind Pressure Humidity
    00:00 +11°C° 0 mm 1 mps 626 mmHg 84%
    01:00 +11°C° 0 mm 1 mps 625 mmHg 82%
    02:00 +11°C° 0 mm 1 mps 625 mmHg 81%
    03:00 +11°C° 0 mm 1 mps 625 mmHg 79%
    04:00 +11°C° 0 mm 1 mps 625 mmHg 76%
    05:00 +12°C° 0 mm 1 mps 626 mmHg 72%
    06:00 +13°C° 0 mm 1 mps 626 mmHg 69%
    07:00 +15°C° 0 mm 1 mps 627 mmHg 61%
    08:00 +19°C° 0 mm 1 mps 628 mmHg 53%
    09:00 +22°C° 0 mm 1 mps 629 mmHg 44%
    10:00 +23°C° 0 mm 2 mps 629 mmHg 42%
    11:00 +24°C° 0 mm 2 mps 630 mmHg 39%
    12:00 +25°C° 0 mm 2 mps 630 mmHg 37%
    13:00 +25°C° 0 mm 3 mps 629 mmHg 37%
    14:00 +25°C° 0 mm 3 mps 629 mmHg 37%
    15:00 +25°C° 0 mm 3 mps 629 mmHg 37%
    16:00 +24°C° 0 mm 2 mps 629 mmHg 40%
    17:00 +24°C° 0 mm 2 mps 628 mmHg 43%
    18:00 +23°C° 0 mm 2 mps 628 mmHg 46%
    19:00 +19°C° 0 mm 2 mps 627 mmHg 56%
    20:00 +18°C° 0 mm 1 mps 627 mmHg 65%
    21:00 +14°C° 0 mm 1 mps 627 mmHg 74%
    22:00 +14°C° 0 mm 1 mps 627 mmHg 75%
    23:00 +13°C° 0 mm 1 mps 627 mmHg 76%

    Day after tomorrow, 28 July, Friday

    Time Temperature Precipitation Wind Pressure Humidity
    00:00 +13°C° 0 mm 1 mps 627 mmHg 78%
    01:00 +13°C° 0 mm 1 mps 626 mmHg 78%
    02:00 +13°C° 0 mm 1 mps 626 mmHg 78%
    03:00 +12°C° 0 mm 1 mps 626 mmHg 78%
    04:00 +13°C° 0 mm 1 mps 627 mmHg 76%
    05:00 +14°C° 0 mm 1 mps 627 mmHg 73%
    06:00 +14°C° 0 mm 1 mps 628 mmHg 71%
    07:00 +16°C° 0 mm 1 mps 629 mmHg 64%
    08:00 +19°C° 0 mm 2 mps 630 mmHg 58%
    09:00 +21°C° 0 mm 2 mps 631 mmHg 52%
    10:00 +22°C° 0 mm 3 mps 631 mmHg 49%
    11:00 +24°C° 0 mm 3 mps 631 mmHg 47%
    12:00 +24°C° 0 mm 3 mps 631 mmHg 45%
    13:00 +24°C° 0 mm 3 mps 631 mmHg 46%
    14:00 +24°C° 0 mm 3 mps 631 mmHg 47%
    15:00 +24°C° 0 mm 3 mps 631 mmHg 48%
    16:00 +24°C° 0.1 mm 3 mps 630 mmHg 53%
    17:00 +23°C° 0.1 mm 2 mps 630 mmHg 57%
    18:00 +21°C° 0.1 mm 2 mps 629 mmHg 61%
    19:00 +20°C° 0 mm 1 mps 629 mmHg 69%
    20:00 +18°C° 0 mm 1 mps 629 mmHg 78%
    21:00 +14°C° 0 mm 0 mps 628 mmHg 86%
    22:00 +14°C° 0 mm 1 mps 628 mmHg 86%
    23:00 +14°C° 0 mm 1 mps 628 mmHg 87%

    29 July, Saturday

    Time Temperature Precipitation Wind Pressure Humidity
    00:00 +14°C° 0 mm 1 mps 628 mmHg 88%
    01:00 +14°C° 0 mm 1 mps 628 mmHg 87%
    02:00 +14°C° 0 mm 1 mps 628 mmHg 87%
    03:00 +13°C° 0 mm 1 mps 627 mmHg 87%
    04:00 +14°C° 0 mm 1 mps 628 mmHg 84%
    05:00 +15°C° 0 mm 1 mps 628 mmHg 80%
    06:00 +15°C° 0 mm 1 mps 628 mmHg 77%
    07:00 +19°C° 0 mm 1 mps 629 mmHg 66%
    08:00 +20°C° 0 mm 2 mps 630 mmHg 55%
    09:00 +24°C° 0 mm 3 mps 631 mmHg 44%
    10:00 +25°C° 0 mm 3 mps 631 mmHg 40%
    11:00 +26°C° 0 mm 4 mps 631 mmHg 36%
    12:00 +27°C° 0 mm 4 mps 631 mmHg 33%
    13:00 +27°C° 0 mm 4 mps 631 mmHg 33%
    14:00 +27°C° 0 mm 4 mps 631 mmHg 33%
    15:00 +27°C° 0 mm 4 mps 630 mmHg 34%
    16:00 +26°C° 0.1 mm 4 mps 630 mmHg 39%
    17:00 +25°C° 0.1 mm 3 mps 629 mmHg 44%
    18:00 +23°C° 0.1 mm 2 mps 629 mmHg 50%
    19:00 +20°C° 0.2 mm 2 mps 628 mmHg 56%
    20:00 +19°C° 0.2 mm 1 mps 628 mmHg 62%
    21:00 +16°C° 0.2 mm 1 mps 627 mmHg 68%
    22:00 +16°C° 0 mm 1 mps 627 mmHg 68%
    23:00 +15°C° 0 mm 1 mps 627 mmHg 68%

    30 July, Sunday

    Time Temperature Precipitation Wind Pressure Humidity
    00:00 +15°C° 0 mm 1 mps 627 mmHg 67%
    01:00 +15°C° 0 mm 1 mps 627 mmHg 66%
    02:00 +14°C° 0 mm 1 mps 626 mmHg 64%
    03:00 +14°C° 0 mm 1 mps 626 mmHg 62%
    04:00 +14°C° 0 mm 1 mps 626 mmHg 61%
    05:00 +15°C° 0 mm 1 mps 627 mmHg 61%
    06:00 +15°C° 0 mm 1 mps 627 mmHg 60%
    07:00 +18°C° 0 mm 1 mps 628 mmHg 55%
    08:00 +20°C° 0 mm 2 mps 629 mmHg 50%
    09:00 +23°C° 0 mm 2 mps 630 mmHg 45%
    10:00 +24°C° 0 mm 3 mps 630 mmHg 42%
    11:00 +25°C° 0 mm 3 mps 630 mmHg 39%
    12:00 +26°C° 0 mm 4 mps 630 mmHg 37%
    13:00 +26°C° 0 mm 4 mps 630 mmHg 37%
    14:00 +26°C° 0 mm 4 mps 630 mmHg 36%
    15:00 +26°C° 0 mm 4 mps 630 mmHg 36%
    16:00 +25°C° 0 mm 3 mps 629 mmHg 41%
    17:00 +24°C° 0 mm 3 mps 628 mmHg 46%
    18:00 +23°C° 0 mm 2 mps 628 mmHg 52%
    19:00 +20°C° 0 mm 2 mps 627 mmHg 60%
    20:00 +19°C° 0 mm 1 mps 627 mmHg 69%
    21:00 +15°C° 0 mm 1 mps 626 mmHg 78%
    22:00 +15°C° 0 mm 1 mps 626 mmHg 80%
    23:00 +15°C° 0 mm 1 mps 626 mmHg 81%

    31 July, Monday

    Time Temperature Precipitation Wind Pressure Humidity
    00:00 +15°C° 0 mm 1 mps 625 mmHg 83%
    01:00 +14°C° 0 mm 2 mps 625 mmHg 78%
    02:00 +14°C° 0 mm 2 mps 625 mmHg 72%
    03:00 +14°C° 0 mm 2 mps 624 mmHg 67%
    04:00 +14°C° 0 mm 2 mps 625 mmHg 63%
    05:00 +15°C° 0 mm 2 mps 625 mmHg 58%
    06:00 +16°C° 0 mm 2 mps 625 mmHg 54%
    07:00 +18°C° 0 mm 3 mps 626 mmHg 48%
    08:00 +21°C° 0 mm 3 mps 627 mmHg 41%
    09:00 +25°C° 0 mm 3 mps 628 mmHg 35%
    10:00 +26°C° 0 mm 4 mps 628 mmHg 32%
    11:00 +27°C° 0 mm 5 mps 628 mmHg 30%
    12:00 +28°C° 0 mm 5 mps 628 mmHg 27%
    13:00 +28°C° 0 mm 5 mps 628 mmHg 28%
    14:00 +28°C° 0 mm 6 mps 628 mmHg 29%
    15:00 +27°C° 0 mm 6 mps 627 mmHg 30%
    16:00 +26°C° 0.1 mm 5 mps 627 mmHg 36%
    17:00 +25°C° 0.1 mm 4 mps 626 mmHg 41%
    18:00 +22°C° 0.1 mm 3 mps 626 mmHg 47%
    19:00 +20°C° 0 mm 3 mps 625 mmHg 53%
    20:00 +18°C° 0 mm 2 mps 625 mmHg 60%
    21:00 +15°C° 0 mm 2 mps 625 mmHg 67%
    22:00 +15°C° 0 mm 1 mps 625 mmHg 65%
    23:00 +15°C° 0 mm 1 mps 625 mmHg 64%
    Show more